Estherville, IA

9:40 PM CDT on September 20, 2017 (GMT -0500)
Estherville Municipal

Weather History for KEST - October, 2013

Change the Weather History Date:

Wednesday, October 2, 2013

  Actual Average Record
Temperature  
Mean Temperature 61 °F 54 °F  
Max Temperature 82 °F 66 °F 93 °F (1997)
Min Temperature 40 °F 41 °F 18 °F (1974)
Degree Days  
Heating Degree Days 4 12  
Month to date heating degree days 7 23  
Since 1 July heating degree days 155 231  
Cooling Degree Days 0 1  
Month to date cooling degree days 0 2  
Year to date cooling degree days 712 589  
Growing Degree Days 10 (Base 50)    
Moisture  
Dew Point 48 °F    
Average Humidity 55    
Maximum Humidity 85    
Minimum Humidity 24    
Precipitation  
Precipitation T in 0.11 in 1.16 in (1971)
Month to date precipitation T 0.22  
Sea Level Pressure  
Sea Level Pressure 29.92 in    
Wind  
Wind Speed 10 mph (SSE)    
Max Wind Speed 24 mph    
Max Gust Speed 31 mph    
Visibility 10 miles    
Events Rain , Thunderstorm    
T = Trace of Precipitation, MM = Missing Value Source: NWS Daily Summary

Daily Weather History Graph

Daily Weather History Graph

Search for Another Location

Airport or City:

Trip Planner

Search our weather history database for the weather conditions in past years. The results will help you decide how hot, cold, wet, or windy it might be!

Date:

Astronomy

Oct. 02, 2013 Rise Set
Actual Time 7:17 AM CDT 6:57 PM CDT
Civil Twilight 6:49 AM CDT 7:26 PM CDT
Nautical Twilight 6:16 AM CDT 7:59 PM CDT
Astronomical Twilight 5:42 AM CDT 8:32 PM CDT
Moon 4:48 AM CDT (10/2) 5:36 PM CDT (10/2)
Length of Visible Light 12h 36m
Length of Day
11h 39m
Waning Crescent, 6% of the Moon is Illuminated
Oct 2
Waning Crescent
Oct 4
New
Oct 11
First Quarter
Oct 18
Full
Oct 26
Last Quarter

Hourly Weather History & Observations

Time (CDT) Temp. Windchill Dew Point Humidity Pressure Visibility Wind Dir Wind Speed Gust Speed Precip Events Conditions
12:52 AM 46.0 °F 43.1 °F 37.0 °F 71% 30.01 in 10.0 mi North 5.8 mph - N/A   Clear
1:52 AM 45.0 °F 43.5 °F 36.0 °F 71% 30.02 in 10.0 mi North 3.5 mph - N/A   Clear
2:52 AM 42.1 °F - 36.0 °F 79% 30.03 in 10.0 mi Calm Calm - N/A   Clear
3:52 AM 41.0 °F - 36.0 °F 82% 30.02 in 10.0 mi Calm Calm - N/A   Clear
4:52 AM 41.0 °F - 36.0 °F 82% 30.03 in 10.0 mi Calm Calm - N/A   Clear
5:52 AM 39.9 °F 37.8 °F 36.0 °F 86% 30.02 in 10.0 mi ESE 3.5 mph - N/A   Clear
6:52 AM 42.1 °F 38.4 °F 35.1 °F 76% 30.04 in 10.0 mi ESE 5.8 mph - N/A   Clear
7:52 AM 50.0 °F - 37.0 °F 61% 30.04 in 10.0 mi SE 4.6 mph - N/A   Clear
8:52 AM 57.9 °F - 36.0 °F 44% 30.04 in 10.0 mi ESE 9.2 mph - N/A   Partly Cloudy
9:52 AM 66.9 °F - 35.1 °F 31% 30.02 in 10.0 mi ESE 17.3 mph 25.3 mph N/A   Clear
10:52 AM 71.1 °F - 35.1 °F 27% 30.02 in 10.0 mi SE 15.0 mph 24.2 mph N/A   Overcast
11:52 AM 72.0 °F - 34.0 °F 25% 30.00 in 10.0 mi SE 17.3 mph 24.2 mph N/A   Mostly Cloudy
12:52 PM 77.0 °F - 37.0 °F 24% 29.97 in 10.0 mi SSE 19.6 mph 26.5 mph N/A   Overcast
1:52 PM 78.1 °F - 43.0 °F 29% 29.92 in 10.0 mi SE 18.4 mph 25.3 mph N/A   Clear
2:52 PM 80.1 °F - 52.0 °F 38% 29.88 in 10.0 mi SSE 20.7 mph 31.1 mph N/A   Clear
3:52 PM 80.1 °F - 55.9 °F 43% 29.86 in 10.0 mi SSE 13.8 mph - N/A   Mostly Cloudy
4:52 PM 80.1 °F - 60.1 °F 50% 29.83 in 10.0 mi South 16.1 mph 23.0 mph N/A   Partly Cloudy
5:52 PM 80.1 °F - 61.0 °F 52% 29.82 in 10.0 mi South 13.8 mph - N/A   Scattered Clouds
6:14 PM 80.6 °F - 60.8 °F 51% 29.82 in 9.0 mi South 13.8 mph - N/A Thunderstorm Mostly Cloudy
6:29 PM 78.8 °F - 60.8 °F 54% 29.82 in 10.0 mi South 11.5 mph - N/A   Partly Cloudy
6:52 PM 77.0 °F - 61.0 °F 58% 29.82 in 10.0 mi SSE 9.2 mph - N/A   Partly Cloudy
7:20 PM 75.2 °F - 62.6 °F 65% 29.82 in 8.0 mi South 5.8 mph - 0.00 in Rain , Thunderstorm Rain
7:41 PM 73.4 °F - 62.6 °F 69% 29.81 in 10.0 mi SSE 6.9 mph - 0.00 in   Mostly Cloudy
7:52 PM 73.0 °F - 61.0 °F 66% 29.81 in 10.0 mi South 6.9 mph - 0.00 in   Mostly Cloudy
8:52 PM 72.0 °F - 59.0 °F 64% 29.81 in 10.0 mi South 6.9 mph - N/A   Mostly Cloudy
9:52 PM 70.0 °F - 59.0 °F 68% 29.81 in 10.0 mi South 6.9 mph - N/A   Partly Cloudy
10:52 PM 66.0 °F - 57.9 °F 75% 29.81 in 10.0 mi South 6.9 mph - N/A   Clear
11:52 PM 66.9 °F - 60.1 °F 79% 29.82 in 10.0 mi NNE 6.9 mph - N/A   Partly Cloudy